Home   Weather   Taichung   Past weeks

Flag for Taiwan Past Weather in Taichung, Taiwan — Yesterday and Last 2 Weeks

Now
84 °F

Passing clouds.


Feels Like: 92 °F
Forecast: 80 / 92 °F
Wind: 29 mph from Northeast

Location: Chiang Kai Shek

Current Time: Sep 25, 2016 at 3:15:00 PM

Latest Report: Sep 25, 2016 at 2:30 PM


Visibility: N/A

Pressure: 29.77 "Hg

Humidity: 74%

Dew Point: 75 °F

Location of TaichungLocation

Past Weather in Taichung — Graph

°F

Taichung Temperature Yesterday

Maximum temperature yesterday: 84 °F (at 10:00 AM)
Minimum temperature yesterday: 75 °F (at 5:00 AM)
Average temperature yesterday: 81 °F

High & Low Weather Summary for the Past Weeks

 TemperatureHumidityPressure
High91 °F (Sep 13, 1:30 PM)100% (Sep 12, 5:53 AM)30.01 "Hg (Sep 12, 5:53 AM)
Low73 °F (Sep 19, 4:30 AM)58% (Sep 24, 5:00 PM)29.36 "Hg (Sep 14, 2:30 PM)
Average81 °F79%29.78 "Hg
* Reported Sep 10 2:00 PM — Sep 25 2:00 PM, Taichung, Weather by CustomWeather, © 2016

Note: Actual official high and low records may vary slightly from our data, if they occured in-between our weather recording intervals... More about our weather records

Advertising

Taichung Weather History for the Previous 24 Hours

Scroll right to see more
 ConditionsComfort  
Time TempWeatherWind HumidityBarometerVisibility
2:00 PM
Sun, Sep 25
84 °FBroken clouds.28 mph79%29.77 "HgN/A
1:30 PM84 °FBroken clouds.26 mph74%29.77 "HgN/A
1:00 PM86 °FBroken clouds.28 mph75%29.80 "HgN/A
12:30 PM84 °FPartly sunny.25 mph74%29.80 "HgN/A
12:00 PM84 °FPartly sunny.26 mph79%29.83 "HgN/A
11:30 AM82 °FPartly sunny.25 mph79%29.83 "HgN/A
11:00 AM82 °FBroken clouds.24 mph84%29.83 "HgN/A
10:30 AM84 °FBroken clouds.24 mph79%29.86 "HgN/A
10:00 AM82 °FBroken clouds.20 mph84%29.86 "HgN/A
9:30 AM82 °FBroken clouds.22 mph79%29.86 "HgN/A
9:00 AM81 °FPartly sunny.20 mph89%29.86 "HgN/A
8:30 AM81 °FPartly sunny.17 mph84%29.86 "HgN/A
8:00 AM82 °FBroken clouds.15 mph79%29.86 "HgN/A
7:30 AM81 °FScattered clouds.16 mph84%29.83 "HgN/A
7:00 AM81 °FScattered clouds.16 mph84%29.83 "HgN/A
6:30 AM79 °FScattered clouds.14 mph89%29.83 "HgN/A
6:00 AM79 °FBroken clouds.14 mph89%29.83 "HgN/A
5:30 AM79 °FPassing clouds.15 mph89%29.80 "HgN/A
5:00 AM79 °FPassing clouds.14 mph89%29.80 "HgN/A
4:30 AM79 °FPassing clouds.13 mph89%29.80 "HgN/A
4:00 AM79 °FPassing clouds.14 mph89%29.80 "HgN/A
3:30 AM79 °FPassing clouds.14 mph89%29.80 "HgN/A
3:00 AM79 °FPassing clouds.14 mph84%29.80 "HgN/A
2:30 AM79 °FPassing clouds.12 mph84%29.80 "HgN/A
2:00 AM79 °FPassing clouds.14 mph84%29.80 "HgN/A
1:30 AM81 °FPassing clouds.14 mph74%29.80 "HgN/A
1:00 AM79 °FPassing clouds.16 mph79%29.80 "HgN/A
12:30 AM79 °FPassing clouds.17 mph79%29.80 "HgN/A
12:00 AM81 °FPassing clouds.20 mph70%29.83 "HgN/A
11:30 PM
Sat, Sep 24
79 °FPassing clouds.17 mph79%29.83 "HgN/A
11:00 PM79 °FPassing clouds.16 mph84%29.83 "HgN/A
10:30 PM79 °FPassing clouds.15 mph84%29.83 "HgN/A
10:00 PM79 °FPassing clouds.15 mph84%29.83 "HgN/A
9:30 PM79 °FPassing clouds.17 mph79%29.83 "HgN/A
9:00 PM81 °FPassing clouds.18 mph70%29.83 "HgN/A
8:30 PM81 °FPassing clouds.17 mph70%29.83 "HgN/A
8:00 PM81 °FPassing clouds.15 mph66%29.83 "HgN/A
7:30 PM79 °FPassing clouds.18 mph70%29.83 "HgN/A
7:00 PM81 °FPassing clouds.21 mph66%29.80 "HgN/A
6:30 PM81 °FPassing clouds.20 mph66%29.80 "HgN/A
6:00 PM81 °FPassing clouds.20 mph66%29.80 "HgN/A
5:30 PM82 °FPassing clouds.21 mph58%29.80 "HgN/A
5:00 PM82 °FPassing clouds.20 mph58%29.80 "HgN/A
4:30 PM82 °FPassing clouds.21 mph70%29.77 "HgN/A
4:00 PM82 °FPassing clouds.22 mph70%29.77 "HgN/A
3:30 PM84 °FPassing clouds.24 mph66%29.77 "HgN/A
3:00 PM84 °FPassing clouds.26 mph62%29.77 "HgN/A
Weather by CustomWeather, © 2016

See weather overviewHow to use our weather pages